DORA

Last updated on Thu Nov 21 2024 00:02:09 GMT+0000 (Coordinated Universal Time)

1 61502U 98067XA 24325.07640588 .01119559 00000+0 39662-2 0 9996 2 61502 51.6221 258.9404 0014605 166.6878 193.4514 15.85626763 6702
UTC large
Height (km)
Speed (km/s)
/
Latitude / Longitude
Inclination (degrees)
Orbital Period (minutes)
Azimuth
Elevation
Range (km)
Doppler Factor

Next 0 passes for location: London (51.5072 / 0.1276)

Sorry there are no passes over London.